Weather History for Campo, CA

Change the Weather History Date:

Monday, June 3, 2013

  Actual Average Record
Temperature  
Mean Temperature 62 °F 63 °F  
Max Temperature 83 °F 84 °F 101 °F (1957)
Min Temperature 40 °F 43 °F 32 °F (1966)
Degree Days  
Heating Degree Days 3 3  
Month to date heating degree days 3 10  
Since 1 June heating degree days 3 10  
Since 1 July heating degree days 2980 2937  
Cooling Degree Days 0 2  
Month to date cooling degree days 15 6  
Year to date cooling degree days 42 36  
Since 1 June cooling degree days 15 6  
Growing Degree Days 12 (Base 50)    
Moisture  
Dew Point 43 °F    
Average Humidity 48    
Maximum Humidity 73    
Minimum Humidity 22    
Precipitation  
Precipitation 0.00 in 0.00 in 0.09 in (1985)
Month to date precipitation 0.00 0.01  
Year to date precipitation 4.78 10.05  
Since 1 July precipitation 9.25 15.63  
Snow  
Snow 0.00 in - - ()
Month to date snowfall 0.0  
Year to date snowfall 0.0  
Since 1 July snowfall 0.0  
Snow Depth 0.00 in    
Sea Level Pressure  
Sea Level Pressure 29.76 in    
Wind  
Wind Speed 8 mph (South)    
Max Wind Speed 20 mph    
Max Gust Speed 25 mph    
T = Trace of Precipitation, MM = Missing Value Source: NWS Daily Summary

Daily Weather History Graph

Daily Weather History Graph

Search for Another Location

Airport:

Trip Planner

Search our weather history database for the weather conditions in past years. The results will help you decide how hot, cold, wet, or windy it might be!

Date:

Astronomy

Jun. 03, 2013 Rise Set
Actual Time 5:38 AM PDT 7:49 PM PDT
Civil Twilight 5:10 AM PDT 8:18 PM PDT
Nautical Twilight 4:35 AM PDT 8:52 PM PDT
Astronomical Twilight 3:58 AM PDT 9:29 PM PDT
Moon 2:24 AM PDT (6/3) 3:36 PM PDT (6/3)
Length of Visible Light 15h 07m
Length of Day
14h 11m
Waning Crescent, 21% of the Moon is Illuminated
Jun 3
Waning Crescent
Jun 8
New
Jun 16
First Quarter
Jun 23
Full
Jun 29
Last Quarter

Hourly Weather History & Observations

Time (PDT) Temp. Windchill Dew Point Humidity Pressure Visibility Wind Dir Wind Speed Gust Speed Precip Events Conditions
12:52 AM 51.1 °F - 41.0 °F 68% 29.72 in - NE 5.8 mph - N/A   Unknown
1:52 AM 48.0 °F - 37.9 °F 68% 29.71 in - ENE 5.8 mph - N/A   Unknown
2:52 AM 48.0 °F - 36.0 °F 63% 29.71 in - ENE 5.8 mph - N/A   Unknown
3:52 AM 46.9 °F - 34.0 °F 61% 29.72 in - ENE 3.5 mph - N/A   Unknown
4:52 AM 41.0 °F - 33.1 °F 73% 29.74 in - Calm Calm - N/A   Unknown
5:52 AM 41.0 °F 39.0 °F 32.0 °F 70% 29.75 in - NE 3.5 mph - N/A   Unknown
6:52 AM 52.0 °F - 34.0 °F 50% 29.75 in - NE 3.5 mph - N/A   Unknown
7:52 AM 64.9 °F - 37.9 °F 37% 29.75 in - Calm Calm - N/A   Unknown
9:52 AM 72.0 °F - 45.0 °F 38% 29.77 in - SW 10.4 mph - N/A   Unknown
10:52 AM 73.9 °F - 43.0 °F 33% 29.78 in - SW 8.1 mph - N/A   Unknown
11:52 AM 75.9 °F - 44.1 °F 32% 29.79 in - SW 10.4 mph 16.1 mph N/A   Unknown
12:52 PM 79.0 °F - 45.0 °F 30% 29.78 in - SSW 9.2 mph 18.4 mph N/A   Unknown
1:52 PM 82.0 °F - 42.1 °F 24% 29.76 in - SSW 11.5 mph - N/A   Unknown
2:52 PM 82.0 °F - 39.0 °F 22% 29.75 in - SW 10.4 mph - N/A   Unknown
3:52 PM 82.0 °F - 46.0 °F 28% 29.74 in - SW 16.1 mph - N/A   Unknown
4:52 PM 78.1 °F - 51.1 °F 39% 29.75 in - SW 18.4 mph - N/A   Unknown
5:52 PM 73.9 °F - 52.0 °F 46% 29.76 in - SW 15.0 mph - N/A   Unknown
6:52 PM 69.1 °F - 52.0 °F 54% 29.78 in - SW 10.4 mph - N/A   Unknown
7:52 PM 64.0 °F - 52.0 °F 65% 29.78 in - South 8.1 mph - N/A   Unknown
8:52 PM 61.0 °F - 51.1 °F 70% 29.78 in - Calm Calm - N/A   Unknown
9:52 PM 54.0 °F - 46.9 °F 77% 29.81 in - NE 3.5 mph - N/A   Unknown
10:52 PM 53.1 °F - 46.9 °F 80% 29.81 in - Calm Calm - N/A   Unknown
11:52 PM 46.9 °F - 43.0 °F 86% 29.82 in - Calm Calm - N/A   Unknown